• MPC Preparation (Info)

  • MPEC 2016-O260: 2015 BH519

    The following Minor Planet Electronic Circular may be linked-to from your own Web pages, but must not otherwise be redistributed electronically.

    A form allowing access to any MPEC is at the bottom of this page.


    Read MPEC 2016-O259 Read MPEC 2016-O261


    M.P.E.C. 2016-O260                               Issued 2016 July 17, 20:33 UT
    
         The Minor Planet Electronic Circulars contain information on unusual
             minor planets and routine data on comets.  They are published
        on behalf of Division F of the International Astronomical Union by the
              Minor Planet Center, Smithsonian Astrophysical Observatory,
                              Cambridge, MA 02138, U.S.A.
    
                 Prepared using the Tamkin Foundation Computer Network
    
                                  MPC@CFA.HARVARD.EDU
                URL https://www.minorplanetcenter.net/    ISSN 1523-6714
    
                                      2015 BH519
    
    Observations:
         K15Bp9H  C2012 02 27.47943 12 29 08.859-03 07 03.40         22.4 wLEO260F51
         K15Bp9H  C2012 02 27.49423 12 29 08.792-03 07 03.37         22.6 wLEO260F51
         K15Bp9H  C2012 02 27.50901 12 29 08.750-03 07 02.96         22.4 wLEO260F51
         K15Bp9H  C2012 02 27.52375 12 29 08.691-03 07 02.70         22.5 wLEO260F51
         K15Bp9H  C2012 04 14.34379 12 25 33.917-02 49 48.10         22.4 wLEO260F51
         K15Bp9H  C2012 04 14.35865 12 25 33.841-02 49 47.69         22.3 wLEO260F51
         K15Bp9H  C2012 04 14.37347 12 25 33.782-02 49 47.39         22.3 wLEO260F51
         K15Bp9H  C2012 04 14.38831 12 25 33.700-02 49 47.04         22.3 wLEO260F51
         K15Bp9H  C2014 04 29.30308 12 32 04.488-05 05 05.63         22.1 wLEO260F51
         K15Bp9H  C2014 04 29.31504 12 32 04.443-05 05 05.42         22.3 wLEO260F51
         K15Bp9H  C2014 04 29.32701 12 32 04.390-05 05 05.12         22.3 wLEO260F51
         K15Bp9H* C2015 01 23.54788 12 42 14.470-06 42 26.58         22.6 wLEO260F51
         K15Bp9H  C2015 01 23.56324 12 42 14.454-06 42 26.68         22.5 wLEO260F51
         K15Bp9H  C2015 01 23.57865 12 42 14.427-06 42 26.72         22.6 wLEO260F51
         K15Bp9H  C2015 01 23.59402 12 42 14.410-06 42 26.67         22.6 wLEO260F51
         K15Bp9H  C2015 01 25.54086 12 42 11.599-06 42 29.82         22.5 wLEO260F51
         K15Bp9H  C2015 01 25.55614 12 42 11.552-06 42 29.73         22.4 wLEO260F51
         K15Bp9H  C2015 01 25.57146 12 42 11.547-06 42 30.02         22.5 wLEO260F51
         K15Bp9H  C2015 01 25.58676 12 42 11.521-06 42 29.71         22.6 wLEO260F51
         K15Bp9H  C2015 02 27.54367 12 40 37.369-06 38 11.44         22.4 wLEO260F51
         K15Bp9H  C2015 02 27.55622 12 40 37.304-06 38 11.51         22.4 wLEO260F51
         K15Bp9H  C2015 02 27.56875 12 40 37.269-06 38 11.28         22.5 wLEO260F51
         K15Bp9H  C2015 02 27.58129 12 40 37.209-06 38 11.02         22.2 wLEO260F51
         K15Bp9H  C2015 03 30.38343 12 38 16.783-06 27 50.78         21.5 iLEO260F51
         K15Bp9H  C2015 03 30.39530 12 38 16.715-06 27 50.59         21.6 iLEO260F51
         K15Bp9H  C2015 03 30.40719 12 38 16.653-06 27 50.21         21.5 iLEO260F51
         K15Bp9H  C2015 04 13.38727 12 37 09.182-06 22 25.03         22.3 wLEO260F51
         K15Bp9H  C2015 04 13.39811 12 37 09.125-06 22 24.86         22.4 wLEO260F51
         K15Bp9H  C2015 04 13.40894 12 37 09.072-06 22 24.34         22.2 wLEO260F51
         K15Bp9H  C2015 04 13.41989 12 37 09.018-06 22 24.09         22.2 wLEO260F51
         K15Bp9H  C2015 04 15.40484 12 36 59.667-06 21 38.50         22.1 wLEO260F51
         K15Bp9H  C2015 04 15.41546 12 36 59.609-06 21 38.15         22.4 wLEO260F51
         K15Bp9H  C2015 04 15.42608 12 36 59.576-06 21 38.13         22.1 wLEO260F51
    
    Observer details:
    F51 Pan-STARRS 1, Haleakala.  Observers B. Gibson, T. Goggia, N. Primak,
        A. Schultz, M. Willman.  Measurers K. Chambers, S. Chastel, Y.-T. Chen,
        L. Denneau, H. Flewelling, M. Holman, M. Huber, R. Jedicke, M. Lackner,
        E. Lilly, H.-W. Lin, E. Magnier, M. Micheli, M. Payne, P. Veres,
        R. Wainscoat, C. Waters, R. Weryk.  1.8-m Ritchey-Chretien + CCD.
    
    Orbital elements:
    2015 BH519
    Epoch 2016 July 31.0 TT = JDT 2457600.5                 MPC
    M 332.67392              (2000.0)            P               Q
    n   0.00246682     Peri.  239.95011     -0.39962030     +0.91477519
    a  54.2472849      Node     7.28331     -0.59479826     -0.20972187
    e   0.3298809      Incl.   27.77421     -0.69750889     -0.34525801
    P 400              H    6.1           G   0.15           U   2
    Residuals in seconds of arc
    120227 F51  0.1-  0.1+    150123 F51  0.1+  0.2+    150227 F51  0.2-  0.1-
    120227 F51  0.2-  0.1-    150123 F51  0.2+  0.1+    150330 F51  0.2-  0.0
    120227 F51  0.1+  0.0     150123 F51  0.1+  0.1+    150330 F51  0.3-  0.1-
    120227 F51  0.2+  0.0     150123 F51  0.2+  0.2+    150330 F51  0.4-  0.0
    120414 F51  0.0   0.1-    150125 F51  0.2+  0.1+    150413 F51  0.2+  0.1-
    120414 F51  0.1-  0.0     150125 F51  0.2-  0.2+    150413 F51  0.1+  0.2-
    120414 F51  0.1+  0.0     150125 F51  0.1+  0.1-    150413 F51  0.1+  0.1+
    120414 F51  0.1-  0.0     150125 F51  0.1+  0.2+    150413 F51  0.1+  0.1+
    140429 F51  0.0   0.0     150227 F51  0.1-  0.1+    150415 F51  0.1+  0.1-
    140429 F51  0.0   0.0     150227 F51  0.3-  0.1-    150415 F51  0.0   0.0
    140429 F51  0.0   0.0     150227 F51  0.0   0.1-    150415 F51  0.2+  0.2-
    
    Ephemeris:
    2015 BH519               a,e,i = 54.25, 0.33, 28                 q = 36.352
    Date    TT    R. A. (2000) Decl.     Delta      r     Elong.  Phase     V
    2016 06 17    12 37 42.0 -07 18 09  40.1444 40.4276   105.5     1.4    22.3
    ...
    2016 07 02    12 37 41.5 -07 18 47  40.3836 40.4178    91.2     1.4    22.4
    ...
    2016 07 10    12 37 49.4 -07 20 00  40.5128 40.4126    83.6     1.4    22.4
    ...
    2016 07 16    12 37 59.1 -07 21 18  40.6084 40.4086    78.0     1.4    22.4
    2016 07 17    12 38 01.1 -07 21 33  40.6242 40.4080    77.0     1.4    22.4
    2016 07 18    12 38 03.1 -07 21 49  40.6399 40.4073    76.1     1.4    22.4
    ...
    2016 07 24    12 38 16.8 -07 23 34  40.7325 40.4034    70.4     1.4    22.4
    ...
    2016 08 01    12 38 39.8 -07 26 24  40.8505 40.3981    62.9     1.3    22.4
    ...
    2016 08 16    12 39 35.8 -07 33 12  41.0482 40.3883    48.8     1.1    22.4
    
    A. U. Tomatic                (C) Copyright 2016 MPC           M.P.E.C. 2016-O260
    

    Read MPEC 2016-O259 Read MPEC 2016-O261


    MPEC number:

    Enter an MPEC number in one of the following forms:

    • 1997-B01 (the full form)
    • J97B01 (the packed version of the full form)
    • B01 (the abbreviated form)